Yatton Keynell, United Kingdom

7:59 PM BST on April 25, 2019 (GMT +0100)
Yatton Keynell

Weather History for 03740 - July, 2010

Change the Weather History Date:

Thursday, July 29, 2010

  Actual Average Record
Temperature  
Mean Temperature 62 °F -  
Max Temperature 71 °F 68 °F - ()
Min Temperature 53 °F 53 °F - ()
Degree Days  
Heating Degree Days 3    
Growing Degree Days 12 (Base 50)    
Moisture  
Dew Point 51 °F    
Average Humidity 70    
Maximum Humidity 88    
Minimum Humidity 42    
Precipitation  
Precipitation 0.00 in 0.08 in - ()
Sea Level Pressure  
Sea Level Pressure 30.03 in    
Wind  
Wind Speed 7 mph ()    
Max Wind Speed 14 mph    
Max Gust Speed -    
Visibility 6.2 miles    
Events      
T = Trace of Precipitation, MM = Missing Value Source: Averaged Metar Reports

Daily Weather History Graph

Daily Weather History Graph

Search for Another Location

Airport or City:

Astronomy

Jul. 29, 2010 Rise Set
Actual Time 5:26 AM BST 9:00 PM BST
Civil Twilight 4:45 AM BST 9:42 PM BST
Nautical Twilight 3:49 AM BST 10:37 PM BST
Astronomical Twilight 2:25 AM BST 11:59 PM BST
Moon 9:49 PM BST (7/29) 9:11 AM BST (7/29)
Length of Visible Light 16h 56m
Length of Day
15h 34m
Waning Gibbous, 90% of the Moon is Illuminated
Jul 29
Waning Gibbous
Aug 3
Last Quarter
Aug 10
New
Aug 16
First Quarter
Aug 24
Full

Hourly Weather History & Observations

Time (BST) Temp. Dew Point Humidity Pressure Visibility Wind Dir Wind Speed Gust Speed Precip Events Conditions
12:50 AM 53 °F 50 °F 85% 30.07 in 31 mi West 8.1 mph - -  
12:50 AM 53.6 °F 50.0 °F 88% 30.06 in 6.2 mi West 8.1 mph - N/A   Unknown
1:50 AM 53.6 °F 50.0 °F 88% 30.04 in 6.2 mi WSW 6.9 mph - N/A   Mostly Cloudy
2:50 AM 53.6 °F 50.0 °F 88% 30.04 in 6.2 mi SW 5.8 mph - N/A   Mostly Cloudy
3:50 AM 54 °F 51 °F 84% 30.04 in 28 mi SW 4.6 mph - -   Mostly Cloudy
3:50 AM 55.4 °F 50.0 °F 82% 30.04 in 6.2 mi SW 4.6 mph - N/A   Mostly Cloudy
4:50 AM 53.6 °F 50.0 °F 88% 30.04 in 6.2 mi SW 5.8 mph - N/A   Mostly Cloudy
5:50 AM 55.4 °F 51.8 °F 88% 30.04 in 6.2 mi WSW 5.8 mph - N/A   Mostly Cloudy
6:50 AM 55.4 °F 51.8 °F 88% 30.04 in 6.2 mi WSW 5.8 mph - N/A   Mostly Cloudy
7:50 AM 57.2 °F 53.6 °F 88% 30.04 in 6.2 mi WNW 6.9 mph - N/A   Mostly Cloudy
8:50 AM 60.8 °F 53.6 °F 77% 30.04 in 6.2 mi WNW 10.4 mph - N/A   Mostly Cloudy
9:50 AM 62 °F 53 °F 63% 30.05 in 25 mi NW 9.2 mph - -   Mostly Cloudy
9:50 AM 62.6 °F 53.6 °F 72% 30.04 in 6.2 mi NW 9.2 mph - N/A   Mostly Cloudy
10:50 AM 64.4 °F 51.8 °F 64% 30.04 in 6.2 mi NNW 5.8 mph - N/A   Mostly Cloudy
11:50 AM 66.2 °F 50.0 °F 56% 30.04 in 6.2 mi WNW 9.2 mph - N/A   Mostly Cloudy
12:50 PM 66 °F 49 °F 44% 30.04 in 28 mi WNW 9.2 mph - -   Mostly Cloudy
12:50 PM 66.2 °F 50.0 °F 56% 30.04 in 6.2 mi WNW 9.2 mph - N/A   Mostly Cloudy
1:50 PM 68.0 °F 50.0 °F 52% 30.04 in 6.2 mi WNW 10.4 mph - N/A   Mostly Cloudy
2:50 PM 68.0 °F 50.0 °F 52% 30.04 in 6.2 mi WNW 12.7 mph - N/A   Mostly Cloudy
3:50 PM 67 °F 49 °F 42% 30.03 in 28 mi WNW 13.8 mph - -   Mostly Cloudy
3:50 PM 68.0 °F 50.0 °F 52% 30.04 in 6.2 mi WNW 13.8 mph - N/A   Mostly Cloudy
4:50 PM 68.0 °F 50.0 °F 52% 30.01 in 6.2 mi WNW 12.7 mph - N/A   Mostly Cloudy
5:50 PM 66.2 °F 50.0 °F 56% 30.04 in 6.2 mi WNW 12.7 mph - N/A   Mostly Cloudy
6:50 PM 65 °F 50 °F 49% 30.02 in 25 mi WNW 10.4 mph - -   Partly Cloudy
6:50 PM 64.4 °F 50.0 °F 59% 30.01 in 6.2 mi WNW 10.4 mph - N/A   Scattered Clouds
7:50 PM 62.6 °F 51.8 °F 68% 30.01 in 6.2 mi NW 8.1 mph - N/A   Partly Cloudy
8:50 PM 60.8 °F 51.8 °F 72% 30.04 in 6.2 mi NW 6.9 mph - N/A   Mostly Cloudy
9:50 PM 59 °F 51 °F 68% 30.03 in 25 mi NW 8.1 mph - -   Mostly Cloudy
9:50 PM 59.0 °F 51.8 °F 77% 30.01 in 6.2 mi NW 8.1 mph - N/A   Mostly Cloudy
10:50 PM 57.2 °F 51.8 °F 82% 30.01 in 6.2 mi West 5.8 mph - N/A   Mostly Cloudy
11:50 PM 53.6 °F 50.0 °F 88% 30.01 in 6.2 mi WNW 5.8 mph - N/A   Mostly Cloudy